カタログに戻る

COSMOS 2266

運用中ナビゲーションPO
NORAD 22888·PAYLOAD·🇷🇺 Russia

打ち上げ Nov 2, 1993 から Plesetsk Cosmodrome

Loading…

次のパス (今後24時間)

TLE

最新Source: Space-Track

元期: Sep 14, 2026, 19:38 UTC

1 22888U 93070A   26257.81869459  .00000058  00000-0  44682-4 0  9990
2 22888  82.9544  14.8445 0046847 297.8925 227.4965 13.75181901646343

AllMySatでCOSMOS 2266をリアルタイム追跡

Download on the App Store